Regional Weather Roundup
Issued by NWS

Home | Current Version | Previous Version | Graphics & Text | Print | Product List | Glossary On
Versions: 1 2 3 4 5 6 7 8 9 10 11 12 13 14 15 16 17 18 19 20 21 22 23 24 25 26 27 28 29 30 31 32 33 34 35 36 37 38 39 40 41 42 43 44 45 46 47 48 49 50
000
ASUS43 KDMX 300607
RWRIA

WEATHER ROUNDUP FOR IOWA
NATIONAL WEATHER SERVICE DES MOINES IA
1200 AM CST FRI JAN 30 2015

NOTE: "FAIR" INDICATES FEW OR NO CLOUDS BELOW 12,000 FEET WITH NO
SIGNIFICANT WEATHER AND/OR OBSTRUCTIONS TO VISIBILITY.

* - THESE STATIONS ARE NOT NWS STATIONS...THUS NOT UNDER NWS
QUALITY CONTROL.  THEY ALSO DO NOT REPORT WEATHER SUCH
AS PRECIPITATION OR FOG.

IAZ001>003-012>014-020>022-031>034-043>046-300700-
   NORTHWEST IOWA

CITY           SKY/WX    TMP DP  RH WIND       PRES   REMARKS
CARROLL *      CLEAR     23  19  86 N10       30.54R WCI  12
CHEROKEE *     CLEAR     22  19  89 NE6       30.55R WCI  14
DENISON *      CLEAR     23  21  93 N8        30.52S WCI  14
LE MARS *      PTCLDY    23  21  93 CALM      30.56R
ORANGE CITY *  CLOUDY    25  18  74 NE5       30.53S WCI  19
SHELDON *      CLOUDY    23  18  80 N8G15     30.53S WCI  14
SIOUX CITY     CLEAR     23  17  78 N6        30.56R WCI  16
6HR MIN TEMP:  23; 6HR MAX TEMP:  32;

SPENCER        CLEAR     19  14  81 NW9       30.55R WCI   8
6HR MIN TEMP:  19; 6HR MAX TEMP:  28;

STORM LAKE *   CLEAR     21  18  86 N10G16    30.54S WCI  10
$$

IAZ055>058-069>071-079>083-090>094-300700-
   SOUTHWEST IOWA

CITY           SKY/WX    TMP DP  RH WIND       PRES   REMARKS
ATLANTIC *     CLEAR     25  21  86 N6        30.52F WCI  18
AUDUBON *      CLEAR     23  19  86 N7        30.52S WCI  15
CLARINDA *     PTCLDY    27  21  80 N7        30.55S WCI  19
COUNCIL BLFS * CLEAR     25  21  86 N5        30.53R WCI  19
CRESTON *      CLEAR     25  19  80 N9        30.51F WCI  15
HARLAN  *      CLEAR     25  23  93 N8        30.56S WCI  16
LAMONI         CLEAR     24  19  81 NW7       30.51R WCI  16
6HR MIN TEMP:  23; 6HR MAX TEMP:  33;

RED OAK *      PTCLDY    27  21  80 N7        30.55R WCI  19
SHENANDOAH *   CLEAR     27  21  80 N6        30.56R WCI  20
$$

IAZ047>049-059>061-072>074-084-300700-
   CENTRAL IOWA

CITY           SKY/WX    TMP DP  RH WIND       PRES   REMARKS
AMES           CLEAR     22  15  75 N14       30.52R WCI   9
6HR MIN TEMP:  22; 6HR MAX TEMP:  30;

ANKENY *       CLEAR     23  18  80 N13       30.53R WCI  11
CHARITON *     CLEAR     25  19  80 NW14      30.50S WCI  13
DES MOINES     PTCLDY    25  18  74 N10       30.53R WCI  15
6HR MIN TEMP:  25; 6HR MAX TEMP:  32;

GRINNELL*      CLOUDY    23  18  80 NW15      30.50R WCI  10
KNOXVILLE *    CLOUDY    25  19  80 N17       30.50R WCI  11
MARSHALLTOWN   MOCLDY    22  15  75 N20       30.49R WCI   7
6HR MIN TEMP:  22; 6HR MAX TEMP:  29;

PELLA *        CLOUDY    25  19  77 N14       30.52S WCI  14
PERRY *          N/A     24  20  86 N13       30.53S WCI  12
$$

IAZ004>006-015-016-023>025-035-036-300700-
   NORTH CENTRAL IOWA

CITY           SKY/WX    TMP DP  RH WIND       PRES   REMARKS
ALGONA *       CLEAR     18  14  86 N13G20    30.54R WCI   4
CLARION *      CLEAR     18  14  86 N16G23    30.52S WCI   3
ESTHERVILLE    CLEAR     16  12  84 N14       30.53R WCI   2
6HR MIN TEMP:  16; 6HR MAX TEMP:  23;

FORT DODGE *   CLEAR     19  12  73 N9        30.55R WCI   9
MASON CITY     CLEAR     17  12  80 NW14      30.52R WCI   3
6HR MIN TEMP:  17; 6HR MAX TEMP:  24;

FOREST CITY *  CLEAR     18  12  79 NW14      30.51S WCI   4
IOWA FALLS *     N/A     19  16  86 NW20      30.51S WCI   4
$$

IAZ007>011-017>019-026>030-037>042-050>054-066-300700-
   NORTHEAST IOWA

CITY           SKY/WX    TMP DP  RH WIND       PRES   REMARKS
CEDAR RAPIDS   CLEAR     23  16  74 NW12      30.45S WCI  12
6HR MIN TEMP:  23; 6HR MAX TEMP:  32;

CHARLES CITY * CLEAR     19  16  86 NW14      30.49R WCI   6
CLINTON *      MOCLDY    25  16  68 NW15      30.44R WCI  12
DECORAH *      PTCLDY    18  10  73 NW13      30.45R WCI   4
DUBUQUE        CLOUDY    23  14  68 N14       30.40R WCI  11
6HR MIN TEMP:  23; 6HR MAX TEMP:  32;

MONTICELLO *   CLEAR     25  16  68 NW13      30.43R WCI  13
OELWEIN *      CLEAR     21  14  73 NW13      30.46R WCI   9
WATERLOO       MOCLDY    22  15  75 NW14      30.49R WCI   9
6HR MIN TEMP:  21; 6HR MAX TEMP:  29;

$$

IAZ064-065-067-068-078-300700-
   EAST CENTRAL IOWA

CITY           SKY/WX    TMP DP  RH WIND       PRES   REMARKS
DAVENPORT      CLEAR     24  15  68 NW15      30.43R WCI  11
6HR MIN TEMP:  24; 6HR MAX TEMP:  33;

IOWA CITY      PTCLDY    26  16  65 NW8       30.48R WCI  18
6HR MIN TEMP:  25; 6HR MAX TEMP:  33;

MT. PLEASANT * CLOUDY    26  18  70 NW18G25   30.48R WCI  13
MUSCATINE *    CLOUDY    28  18  64 NW18G25   30.47S WCI  16
QUAD CITIES    PTCLDY    27  18  69 NW12      30.43R WCI  17
6HR MIN TEMP:  27; 6HR MAX TEMP:  34;

$$

IAZ062-063-075>077-085>089-095>099-300700-
   SOUTHEAST IOWA

CITY           SKY/WX    TMP DP  RH WIND       PRES   REMARKS
BURLINGTON     CLOUDY    28  19  69 N12G23    30.45R WCI  18
6HR MIN TEMP:  28; 6HR MAX TEMP:  34;

FAIRFIELD *    CLOUDY    27  18  69 NW21      30.49R WCI  13
FORT MADISON * CLOUDY    27  19  74 N20       30.47R WCI  13
KEOKUK *       CLOUDY    28  21  74 NW13G23   30.47R WCI  18
OSKALOOSA *    CLOUDY    25  18  76 N15       30.50R WCI  12
CENTERVILLE *    N/A     25  23  93 NW12      30.51R WCI  14
OTTUMWA        CLOUDY    25  17  72 NW17      30.49R WCI  12
6HR MIN TEMP:  25; 6HR MAX TEMP:  33;

WASHINGTON *   CLOUDY    27  21  80 NW17G24   30.47S WCI  14
$$

ABBREVIATIONS USED IN REMARKS
   TC - TEMPERATURES IN CELSIUS
  WCI - WIND CHILL INDEX
   HX - HEAT INDEX
  VSB - VISIBILITY
$$



USA.gov is the U.S. government's official web portal to all federal, state and local government web resources and services.